Погода в Заводском

Россия / Кабардино-Балкарская Республика     43°29′14″N   44°13′22″E
темп.,
°C
ветер,
м/с
пор.,
м/с
влажн.,
%
обл.,
%
осадки,
мм/ч
давл.,
гПа
погр.,
м
20 июня, вс
вс2000:00+18в1263100 0.0 101317
03:00+15зюз227539 0.0 101321
06:00+17зюз22820 0.0 1012122
09:00+23з2165100 0.0 1011435
12:00+27зюз1156100 0.0 1011741
15:00+29ссз23500 0.0 1009984
18:00+27зсз35650 0.0 1009197
21:00+22з11730 0.0 101111
21 июня, пн
пн2100:00+20з2284100 0.0 101112
03:00+18зюз22890 0.0 101119
06:00+19зюз11750 0.0 101284
09:00+25ссв11620 0.0 1011457
12:00+30всв44530 0.0 10101269
15:00+31всв23460 0.0 10081215
18:00+29с34540 0.0 1008113
21:00+21ссв125019 0.0 101017
22 июня, вт
вт2200:00+18з225264 0.0 101124
03:00+17юз22510 0.0 101114
06:00+18зюз12575 0.0 101178
09:00+24зсз11450 0.0 1011356
12:00+28с22430 0.0 1010861
15:00+30зсз11440 0.0 10091005
18:00+29зсз225853 0.0 1008104
21:00+24ссз1165100 0.0 100911
23 июня, ср
ср2300:00+22зюз3475100 0.0 101074
03:00+19з24740 0.0 101281
06:00+21ю11724 0.0 101270
09:00+26ссз22530 0.0 1012579
12:00+30ссв22410 0.0 10121019
15:00+31с33400 0.0 10121560
18:00+29сз33560 0.0 1012119
21:00+23всв11640 0.0 101312
24 июня, чт
чт2400:00+21ююз22740 0.0 101317
03:00+18з12790 0.0 101416
06:00+19зюз12650 0.0 101479
09:00+24сз22520 0.0 1014452
12:00+28ссз32480 0.0 10131004
15:00+30зсз32460 0.0 10121234
18:00+29зсз23570 0.0 1012267
21:00+23зсз11690 0.0 101311